Find Starlink 30759

NORAD ID: 58122 Int'l Des: 2023-162 Owner: SPXS Country: US Constellation: starlink operational
LEOCIRCULAR

現在のビュー

3D地球を読み込み中...

About Starlink 30759

Starlink 30759 (NORAD 58122) is a starlink constellation satellite (v2 mini) launched Oct 22, 2023 by SPXS of US. It operates in LEO, CIRCULAR orbit with a mass of 730.00 kg.

次回通過

Passes for default location (London). Set your location on the main map for personalized predictions.

高度履歴

Loading altitude history...

軌道要素

1 58122U 23162E 26262.98179683 .00000934 00000-0 43471-4 0 9990
2 58122 43.0049 115.0630 0001712 265.5842 94.4814 15.27578558162034
Epoch: Sep 19, 2026 • Age: 25 hours

現在のステータス

高度 494.2 km
遠地点 / 近地点 N/A
速度 7.62 km/s
衛星直下点 -40.53°S, 38.21°E
打ち上げ日 Oct 22, 2023
運用期間 2.9 years
タイプ internet

技術仕様

分類 Payload
質量 730.00 kg
乾燥質量 700.00 kg
長さ 0.30 m
スパン 29.00 m
形状 ? Box + pan
製造者 SPXS
バスタイプ Starlink V2M
フェーズステータス In Orbit
所有者/国 SPXS/US

Most Searched